Ft Pierce, FL

4:59 PM EDT on May 23, 2018 (GMT -0400)
Saint Lucie County International

Weather History for KFPR - February, 2013

Change the Weather History Date:

Tuesday, February 12, 2013

  Actual Average Record
Temperature  
Mean Temperature 70 °F 64 °F  
Max Temperature 84 °F 75 °F 87 °F (1994)
Min Temperature 57 °F 53 °F 31 °F (1902)
Degree Days  
Heating Degree Days 0 4  
Month to date heating degree days 48  
Since 1 July heating degree days 330  
Cooling Degree Days 6 2  
Month to date cooling degree days 24  
Year to date cooling degree days 81  
Growing Degree Days 20 (Base 50)    
Moisture  
Dew Point 62 °F    
Average Humidity 78    
Maximum Humidity 94    
Minimum Humidity 38    
Precipitation  
Precipitation 0.00 in 0.10 in 1.90 in (2014)
Month to date precipitation 1.07  
Year to date precipitation 3.64  
Sea Level Pressure  
Sea Level Pressure 30.06 in    
Wind  
Wind Speed 3 mph (South)    
Max Wind Speed 15 mph    
Max Gust Speed 18 mph    
Visibility 8 miles    
Events Fog    
T = Trace of Precipitation, MM = Missing Value Source: NWS Daily Summary

Daily Weather History Graph

Daily Weather History Graph

Search for Another Location

Airport or City:

Astronomy

Feb. 12, 2013 Rise Set
Actual Time 7:00 AM EST 6:11 PM EST
Civil Twilight 6:36 AM EST 6:35 PM EST
Nautical Twilight 6:09 AM EST 7:02 PM EST
Astronomical Twilight 5:41 AM EST 7:29 PM EST
Moon 8:15 AM EST (2/12) 8:48 PM EST (2/12)
Length of Visible Light 11h 58m
Length of Day
11h 10m
Waxing Crescent, 7% of the Moon is Illuminated
Feb 12
Waxing Crescent
Feb 17
First Quarter
Feb 25
Full
Mar 4
Last Quarter
Mar 11
New

Hourly Weather History & Observations

Time (EST) Temp. Heat Index Dew Point Humidity Pressure Visibility Wind Dir Wind Speed Gust Speed Precip Events Conditions
12:53 AM 66.0 °F - 62.1 °F 87% 30.13 in 10.0 mi Calm Calm - N/A   Mostly Cloudy
1:53 AM 64.9 °F - 62.1 °F 90% 30.12 in 10.0 mi SSW 3.5 mph - N/A   Clear
2:53 AM 64.0 °F - 61.0 °F 90% 30.10 in 10.0 mi Calm Calm - N/A   Clear
3:53 AM 64.0 °F - 61.0 °F 90% 30.08 in 10.0 mi Calm Calm - N/A   Clear
4:53 AM 59.0 °F - 57.0 °F 93% 30.09 in 2.5 mi Calm Calm - N/A   Clear
4:57 AM 59.0 °F - 57.2 °F 94% 30.09 in 0.8 mi Calm Calm - N/A   Clear
4:59 AM 59.0 °F - 57.2 °F 94% 30.09 in 0.5 mi Calm Calm - N/A Fog Fog
5:11 AM 57.2 °F - 55.4 °F 94% 30.09 in 1.0 mi Calm Calm - N/A   Mist
5:26 AM 57.2 °F - 55.4 °F 94% 30.09 in 2.5 mi Calm Calm - N/A   Partly Cloudy
5:33 AM 57.2 °F - 55.4 °F 94% 30.09 in 8.0 mi Calm Calm - N/A   Partly Cloudy
5:53 AM 57.9 °F - 55.9 °F 93% 30.09 in 10.0 mi Calm Calm - N/A   Clear
6:53 AM 61.0 °F - 57.9 °F 90% 30.10 in 6.0 mi Calm Calm - N/A   Clear
7:53 AM 64.0 °F - 62.1 °F 93% 30.11 in 7.0 mi Calm Calm - N/A   Clear
8:53 AM 72.0 °F - 66.0 °F 81% 30.12 in 10.0 mi SSW 5.8 mph - N/A   Clear
9:53 AM 77.0 °F - 64.9 °F 66% 30.12 in 10.0 mi SSW 11.5 mph - N/A   Partly Cloudy
10:53 AM 79.0 °F - 63.0 °F 58% 30.12 in 10.0 mi South 12.7 mph 18.4 mph N/A   Scattered Clouds
11:53 AM 79.0 °F - 62.1 °F 56% 30.10 in 10.0 mi WSW 10.4 mph - N/A   Scattered Clouds
12:53 PM 84.0 °F 83.8 °F 59.0 °F 43% 30.06 in 10.0 mi SW 11.5 mph - N/A   Scattered Clouds
1:53 PM 84.0 °F 83.8 °F 59.0 °F 43% 30.03 in 10.0 mi SW 10.4 mph - N/A   Scattered Clouds
2:53 PM 84.9 °F 83.9 °F 57.0 °F 38% 30.00 in 10.0 mi Variable 5.8 mph - N/A   Partly Cloudy
3:53 PM 81.0 °F 83.0 °F 66.0 °F 60% 29.97 in 10.0 mi SE 15.0 mph - N/A   Scattered Clouds
4:53 PM 78.1 °F - 66.0 °F 66% 29.97 in 10.0 mi SE 12.7 mph - N/A   Scattered Clouds
5:53 PM 75.9 °F - 66.9 °F 74% 29.97 in 10.0 mi SE 15.0 mph - N/A   Scattered Clouds
6:53 PM 75.0 °F - 66.9 °F 76% 29.97 in 10.0 mi SSE 6.9 mph - N/A   Mostly Cloudy
7:53 PM 75.0 °F - 66.9 °F 76% 29.98 in 10.0 mi SSE 5.8 mph - N/A   Overcast
8:53 PM 75.0 °F - 66.9 °F 76% 29.99 in 10.0 mi South 6.9 mph - N/A   Mostly Cloudy
9:53 PM 73.9 °F - 66.9 °F 79% 30.00 in 10.0 mi South 5.8 mph - N/A   Scattered Clouds
10:53 PM 72.0 °F - 64.9 °F 78% 30.01 in 10.0 mi SW 4.6 mph - N/A   Clear
11:53 PM 70.0 °F - 64.9 °F 84% 30.01 in 10.0 mi South 3.5 mph - N/A   Clear